Location: Home
(42.5358°N, 72.7383°W)
Time: 11:11:38
(UTC-05:00)

S-56A Canister/Altair - Pass Details

Date: 04 December 2021
Orbit: 634 x 2499 km, 38.9° (Epoch: 22 January)

Event Time Altitude Azimuth Distance (km) Brightness Sun altitude
Rises 23:26:45 0° 237° (WSW) 5,464 - -69.6°
Reaches altitude 10° 23:30:53 10° 233° (SW) 4,189 - -69.7°
Maximum altitude 23:40:55 51° 163° (SSE) 1,657 - -69.9°
Drops below altitude 10° 23:47:35 10° 90° (E) 2,826 - -69.8°
Sets 23:49:52 0° 84° (E) 3,587 - -69.8°
